RRR4139 EGVN-EGPL

Flight info

Callsign RRR4139
Flight time N/A
Altitude 32000
Route SWB DCT NINEB/N0316F240 M148 MASOP DCT BRUCE Y958 TOBMO
Aircraft A400/H-SDE2E3FGHIJ4J5M1RWXY/LB1D1

Departure

Time N/A
Airport RAF Brize Norton (EGVN)

Arrival

Time 2026-05-03 20:35
Airport Benbecula Airport (EGPL)
Time Latitude Longitude Altitude Speed Heading
2026-05-03 20:15 56.59277 -6.26599 22893 ft 343 kts 326°
2026-05-03 20:15 56.61272 -6.29006 22524 ft 342 kts 326°
2026-05-03 20:15 56.63248 -6.31395 22156 ft 340 kts 326°
2026-05-03 20:15 56.65222 -6.33783 21789 ft 339 kts 326°
2026-05-03 20:16 56.67179 -6.36154 21423 ft 337 kts 326°
2026-05-03 20:16 56.69104 -6.38489 21068 ft 335 kts 325°
2026-05-03 20:16 56.71037 -6.40835 20700 ft 332 kts 325°
2026-05-03 20:16 56.72959 -6.43173 20335 ft 331 kts 325°
2026-05-03 20:17 56.74869 -6.45498 19971 ft 329 kts 325°
2026-05-03 20:17 56.76770 -6.47816 19612 ft 328 kts 325°
2026-05-03 20:17 56.78669 -6.50134 19261 ft 327 kts 325°
2026-05-03 20:17 56.80558 -6.52442 18901 ft 325 kts 324°
2026-05-03 20:18 56.82409 -6.54708 18541 ft 324 kts 324°
2026-05-03 20:18 56.84284 -6.57005 18156 ft 323 kts 324°
2026-05-03 20:18 56.86144 -6.59286 17771 ft 321 kts 324°
2026-05-03 20:18 56.87995 -6.61560 17404 ft 320 kts 324°
2026-05-03 20:19 56.89839 -6.63827 17050 ft 318 kts 324°
2026-05-03 20:19 56.91671 -6.66083 16689 ft 317 kts 324°
2026-05-03 20:19 56.93470 -6.68300 16334 ft 315 kts 324°
2026-05-03 20:19 56.95282 -6.70535 15966 ft 312 kts 324°
2026-05-03 20:20 56.97083 -6.72761 15603 ft 311 kts 324°
2026-05-03 20:20 56.98874 -6.74977 15231 ft 309 kts 324°
2026-05-03 20:20 57.00656 -6.77184 14874 ft 308 kts 324°
2026-05-03 20:20 57.02428 -6.79381 14514 ft 306 kts 324°
2026-05-03 20:21 57.04191 -6.81570 14157 ft 305 kts 324°
2026-05-03 20:21 57.05947 -6.83752 13789 ft 304 kts 324°
2026-05-03 20:21 57.07688 -6.85918 13393 ft 302 kts 324°
2026-05-03 20:21 57.09407 -6.88060 13039 ft 300 kts 324°
2026-05-03 20:22 57.11139 -6.90219 12679 ft 299 kts 324°
2026-05-03 20:22 57.12857 -6.92365 12310 ft 297 kts 324°
2026-05-03 20:22 57.14567 -6.94502 11959 ft 295 kts 324°
2026-05-03 20:22 57.16262 -6.96624 11589 ft 294 kts 324°
2026-05-03 20:23 57.17949 -6.98737 11220 ft 292 kts 324°
2026-05-03 20:23 57.19623 -7.00837 10876 ft 290 kts 324°
2026-05-03 20:23 57.21265 -7.02897 10699 ft 279 kts 324°
2026-05-03 20:23 57.22844 -7.04881 10423 ft 277 kts 324°
2026-05-03 20:24 57.24429 -7.06876 10052 ft 275 kts 324°
2026-05-03 20:24 57.26013 -7.08873 9691 ft 274 kts 324°
2026-05-03 20:24 57.27582 -7.10851 9355 ft 273 kts 324°
2026-05-03 20:24 57.29150 -7.12831 9010 ft 271 kts 324°
2026-05-03 20:25 57.30706 -7.14797 8670 ft 270 kts 324°
2026-05-03 20:25 57.32252 -7.16753 8327 ft 268 kts 324°
2026-05-03 20:25 57.33783 -7.18690 7988 ft 267 kts 324°
2026-05-03 20:25 57.35312 -7.20628 7650 ft 265 kts 324°
2026-05-03 20:26 57.36816 -7.22537 7311 ft 264 kts 324°
2026-05-03 20:26 57.38329 -7.24459 6960 ft 262 kts 324°
2026-05-03 20:26 57.39829 -7.26366 6633 ft 261 kts 324°
2026-05-03 20:26 57.41325 -7.28270 6270 ft 260 kts 323°
2026-05-03 20:27 57.42814 -7.30166 5900 ft 259 kts 324°
2026-05-03 20:27 57.44292 -7.32051 5585 ft 258 kts 324°
2026-05-03 20:27 57.45758 -7.33947 5229 ft 256 kts 322°
2026-05-03 20:27 57.46970 -7.36207 4892 ft 235 kts 303°
2026-05-03 20:28 57.47583 -7.38808 4521 ft 206 kts 282°
2026-05-03 20:28 57.47700 -7.41378 4316 ft 195 kts 272°
2026-05-03 20:28 57.47675 -7.43870 4043 ft 191 kts 270°
2026-05-03 20:28 57.47627 -7.46307 3770 ft 190 kts 270°
2026-05-03 20:29 57.47576 -7.48721 3506 ft 182 kts 270°
2026-05-03 20:29 57.47528 -7.51057 3260 ft 180 kts 270°
2026-05-03 20:29 57.47482 -7.53367 3114 ft 179 kts 270°
2026-05-03 20:29 57.47437 -7.55687 3103 ft 180 kts 270°
2026-05-03 20:30 57.47378 -7.57943 2885 ft 172 kts 267°
2026-05-03 20:30 57.47093 -7.60075 2487 ft 169 kts 248°
2026-05-03 20:30 57.46407 -7.61840 2061 ft 172 kts 225°
2026-05-03 20:30 57.45373 -7.62936 1775 ft 177 kts 199°
2026-05-03 20:31 57.44145 -7.63117 1700 ft 180 kts 172°
2026-05-03 20:31 57.42970 -7.62294 1699 ft 182 kts 146°
2026-05-03 20:31 57.42105 -7.60612 1703 ft 181 kts 117°
2026-05-03 20:31 57.41718 -7.58434 1703 ft 177 kts 91°
2026-05-03 20:32 57.41854 -7.56215 1709 ft 171 kts 67°
2026-05-03 20:32 57.42330 -7.54199 1704 ft 170 kts 59°
2026-05-03 20:32 57.42886 -7.52265 1703 ft 170 kts 57°
2026-05-03 20:32 57.43478 -7.50391 1631 ft 162 kts 56°
2026-05-03 20:33 57.44008 -7.48738 1413 ft 136 kts 55°
2026-05-03 20:33 57.44482 -7.47195 972 ft 152 kts 56°
2026-05-03 20:33 57.45045 -7.45348 968 ft 175 kts 57°
2026-05-03 20:33 57.45602 -7.43425 797 ft 157 kts 59°
2026-05-03 20:34 57.46129 -7.41699 576 ft 151 kts 52°
2026-05-03 20:34 57.46697 -7.40086 404 ft 148 kts 51°
2026-05-03 20:34 57.47283 -7.38505 207 ft 146 kts 52°
2026-05-03 20:34 57.47839 -7.37001 36 ft 135 kts 52°
2026-05-03 20:35 57.48230 -7.35952 32 ft 53 kts 54°
2026-05-03 20:35 57.48350 -7.35642 33 ft 24 kts 52°
2026-05-03 20:35 57.48438 -7.35408 34 ft 20 kts 55°
2026-05-03 20:35 57.48517 -7.35221 33 ft 16 kts 56°
2026-05-03 20:36 57.48532 -7.35132 32 ft 3 kts 169°
2026-05-03 20:36 57.48526 -7.35145 32 ft 0 kts 225°